Regional Weather Roundup
Issued by NWS Pendleton, OR

Home | Current Version | Previous Version | Text Only | Print | Product List | Glossary On
Versions: 1 2 3 4 5 6 7 8 9 10 11 12 13 14 15 16 17 18 19 20 21 22 23 24 25 26 27 28 29 30 31 32 33 34 35 36 37 38 39 40 41 42 43 44 45 46 47 48 49 50
000
ASUS46 KPDT 261325
RWRPDT
PENDLETON REGIONAL WEATHER ROUNDUP
NATIONAL WEATHER SERVICE PENDLETON OREGON
600 AM PDT SUN APR 26 2015

NOTE: FAIR INDICATES FEW OR NO CLOUDS BELOW 12,000 FEET WITH NO
SIGNIFICANT WEATHER AND/OR OBSTRUCTIONS TO VISIBILITY.

# INDICATES UNOFFICIAL STATION AND DATA

WAZ520-261410-
EAST SLOPES OF WASHINGTON CASCADES

CITY            SKY/WX      TMP DP  RH  WIND    PRES   REMARKS
#BULLFROG 2SW   N/A         28  28  100 S2      27.70R
#BUMPING DAM    N/A         28  N/A N/A SW6     N/A
#CLE ELUM HS    N/A         27  25  92  CALM    30.06R
#CLE ELUM LAKE  N/A         31  26  81  CALM    30.12R
#CLIFFDEL 2NW   N/A         28  26  92  N1      N/A
#GLENWOOD       N/A         22  20  92  CALM    30.16R
#MANASTASH CYN  N/A         28  19  68  CALM    30.06R
#NELSON         N/A         28  27  96  CALM    30.16R
#NELSON 3SW     N/A         28  26  92  CALM    30.37R
#NILE           N/A         26  25  96  CALM    29.41R
#RONALD 2NW     N/A         32  13  45  N1      29.97R
#SNOWDEN        N/A         32  25  75  CALM    N/A
#TEANAWAY 4NE   N/A         26  24  92  CALM    N/A
#TROUT LAKE 1NE N/A         28  25  88  CALM    30.15R
$$

WAZ521-261410-
SIMCOE HIGHLANDS

CITY            SKY/WX      TMP DP  RH  WIND    PRES   REMARKS
#BICKLETON HS   N/A         25  16  68  CALM    N/A
#CENTERVILLE 4W N/A         36  32  85  N2      29.85R
#CENTERVILLE 1SWN/A         26  22  85  CALM    30.12R
#GOLDENDALE     N/A         28  24  85  E1      N/A
#GOLDENDALE 1NE N/A         26  16  65  N1      N/A
#GOODNOE HILLS  N/A         34  27  75  N2      N/A
#LYLE 6NE       N/A         36  33  89  CALM    30.11R
$$

WAZ026-261410-
KITTITAS VALLEY

CITY            SKY/WX      TMP DP  RH  WIND    PRES   REMARKS
ELLENSBURG AP   PTCLDY      30  23  75  CALM    30.11R
YTC-OPS AREA    CLEAR       36  24  61  W15     30.04  WCI 27
#ELLENSBURG CWU N/A         30  25  81  CALM    30.08R
#ELLENSBURG 3NE N/A         29  24  81  CALM    30.11R
#ELLENSBURG 1E  N/A         29  24  81  CALM    N/A
#KITTITAS 3S    N/A         23  21  92  CALM    30.14R
#THORP 6N       N/A         29  24  81  N7      30.16R
$$

WAZ027-261410-
YAKIMA VALLEY

CITY            SKY/WX      TMP DP  RH  WIND    PRES   REMARKS
SUNNYSIDE AP    CLEAR       29  25  85  N3      30.13R
YAKIMA AIRPORT  CLEAR       31  23  72  W5      30.13R
#DONALD 2NE     N/A         39  23  52  N1      28.97R
#GRANDVIEW      N/A         34  26  72  CALM    30.15R
#MABTON         N/A         32  27  82  CALM    30.13R
#NACHES 2SW     N/A         37  29  72  W6      30.09R
#OUTLOOK DOT    N/A         N/A N/A N/A CALM    N/A
#SELAH 8E       N/A         26  21  81  SE6     N/A
#TERRACE HTS    N/A         32  27  82  CALM    30.10R
#WAPATO 4NE     N/A         39  23  52  N1      28.97R
#WEST VALLEY    N/A         32  25  75  CALM    30.12R
#W YAKIMA       N/A         36  28  72  NW2     30.14R
#WHITE SWAN 5E  N/A         28  25  88  N3      30.14R
$$

WAZ028-261410-
LOWER COLUMBIA BASIN...WASHINGTON

CITY            SKY/WX      TMP DP  RH  WIND    PRES   REMARKS
PASCO           CLEAR       30  28  92  N3      30.15R
PROSSER AWOS    N/A         32  30  92  NE2     30.17R
RICHLAND AWOS   CLEAR       36  32  85  CALM    30.14R
#BASIN CITY 5SW N/A         31  28  88  CALM    30.13R
#BENTON CITY    N/A         35  30  82  W2      30.05R
#CONNELL 5N     N/A         26  23  88  CALM    30.13R
#CONNELL 5NW    N/A         30  27  88  CALM    30.09R
#ELTOPIA        N/A          0   0  100 CALM    30.11R
#ELTOPIA 6NW    N/A         41  29  62  SW6     29.09R
#KAHLOTUS       N/A         35  28  75  CALM    30.13R
#KENNEWICK      N/A         28  28  100 S2      27.70R
#KENNEWICK 3S   N/A         41  31  67  SE2     30.14R
#PATERSON       N/A         37  32  82  CALM    30.14R
#PROSSER        N/A         37  26  64  SW1     30.13R
#SAGEMOOR 2W    N/A         39  32  76  CALM    29.98R
#TOUCHET 2S     N/A         30  27  88  E1      30.14R
#WEST PASCO     N/A         36  28  72  CALM    30.19R
$$

WAZ029-261410-
FOOTHILLS OF THE BLUES...WASHINGTON

CITY            SKY/WX      TMP DP  RH  WIND    PRES   REMARKS
WALLA WALLA AP  CLEAR       39  29  67  S8      30.13R
#DAYTON SCHOOL  N/A         36  25  64  CALM    30.13R
#LOWDEN 2SE     N/A         30  28  92  E1      30.12R
#PLEASANT VIEW 1N/A         34  28  78  SW8     30.16R
#PRESCOTT       N/A         28  26  92  CALM    30.14R
#SUDBURY        N/A         30  N/A N/A CALM    N/A
#WHITMAN COLLEGEN/A         40  31  70  SE3     30.19R
#WAITSBURG 5S   N/A         34  29  82  SE6     30.23R
#WAITSBURG 8N   N/A         31  18  58  S3      30.00S
#WALLA WALLA 5E N/A         35  30  82  NE1     N/A
#WALLA WALLA U  N/A         38  31  76  CALM    30.15R
#WHITMAN MISSIONN/A         33  30  89  CALM    30.16R
$$

WAZ030-261410-
BLUE MOUNTAINS...WASHINGTON

CITY            SKY/WX      TMP DP  RH  WIND    PRES   REMARKS
#DIXIE 5SE      N/A         37  24  59  SW5     30.02R
$$

ORZ009-041-WAZ024-261410-
COLUMBIA RIVER GORGE

CITY            SKY/WX      TMP DP  RH  WIND    PRES   REMARKS
HOOD RIVER AP   CLEAR       34  32  92  S3      30.16R
THE DALLES AP   CLEAR       36  31  82  E5      30.15R
#ARLINGTON AIRPON/A         38  32  79  W3      N/A
#ARLINGTON HS   N/A         36  30  79  W3      30.07R
#CELILO DOT     N/A         42  34  73  S2      N/A
#MOSIER 1S      N/A         37  30  75  CALM    30.12S
#MURDOCK        N/A         42  38  86  NW7     30.18R
#RUFUS DOT      N/A         41  34  76  N2      N/A

$$

ORZ510-261410-
NORTH CENTRAL OREGON

CITY            SKY/WX      TMP DP  RH  WIND    PRES   REMARKS
#CHENOWITH 1W   N/A         35  33  92  W12     N/A    WCI 27
#COW CYN RST AREN/A         35  29  78  W2      N/A
#DUFUR 9E       N/A         41  31  67  SW6     30.18R
#GRASS VALLEY 1SN/A         30  26  85  S9      30.17R
#KENT DOT       N/A         30  24  78  S8      N/A
#MAUPIN SCHOOL  N/A         34  28  78  CALM    30.16R
#MORO SCHOOL    N/A         34  31  89  CALM    30.12R
#SHANIKO 5WSW   N/A         32  26  78  S5      N/A
#SHANIKO 4NW    N/A         33  28  82  SW3     30.08S
#TYGH VALLEY 2NEN/A         31  27  85  CALM    30.15R
#WAPANITIA AIRPON/A         32  29  89  CALM    30.15R
#WASCO DOT      N/A         28  26  92  E1      N/A
#WASCO AIRPORT  N/A         35  29  78  CALM    N/A
#WASCO 5NE      N/A         34  30  85  CALM    30.14R
$$

ORZ511-261410-
CENTRAL OREGON

CITY            SKY/WX      TMP DP  RH  WIND    PRES   REMARKS
BEND AIRPORT    CLEAR       27  23  85  CALM    30.11R
MADRAS AIRPORT  CLEAR       28  25  88  S7      30.14R
PRINEVILLE AP   MOCLEAR     21  21  100 CALM    30.12R
REDMOND AIRPORT CLEAR       25  24  96  SE3     30.12
#BEND 1SW       N/A         28  26  92  NE1     N/A
#BEND-AWBREY    N/A         33  30  89  SW5     30.15R
#BEND-KIM LN    N/A         29  26  88  CALM    30.07R
#CROOKED RVR RANN/A         29  26  88  CALM    30.16R
#CULVER         N/A         29  26  88  CALM    30.09R
#LAKE BILLY CHINN/A         31  27  85  SE2     30.22R
#POWELL BUTTE 3EN/A         25  24  96  S2      N/A
#POWELL BUTTE   N/A         30  24  78  SW1     29.72S
#PRINEVILLE 3N  N/A         26  25  96  CALM    30.14R
#WARM SPRINGS   N/A         30  25  81  CALM    30.12R

$$


ORZ509-261410-
EAST SLOPES OF OREGON CASCADES

CITY            SKY/WX      TMP DP  RH  WIND    PRES   REMARKS
#BLUE BOX PASS  N/A         31  -17 11  W2      N/A
#CAMP SHERMAN   N/A         24  21  88  CALM    30.22R
#LA PINE 4NW    N/A         25  21  84  CALM    30.19S
#SISTERS AIRPOR N/A         25  25  100 CALM    30.17S
#SISTERS ODOT   N/A         25  N/A N/A CALM    N/A
#SISTERS 1NW    N/A         25  23  92  N6      N/A
#SISTERS 3N     N/A         24  17  74  CALM    30.13S
#SUNRIVER       N/A         26  24  92  CALM    30.05R
#TUMALO 3W      N/A         31  26  81  CALM    30.04R
#WANOGA BUTTE D N/A         24  23  96  W6      N/A

$$

ORZ044-261410-
LOWER COLUMBIA BASIN...OREGON

CITY            SKY/WX      TMP DP  RH  WIND    PRES   REMARKS
HERMISTON       CLEAR       29  25  85  E5      30.14R
#BOARDMAN 8SW   N/A         36  30  79  CALM    30.14R
#IONE SCHOOL    N/A         33  18  53  CALM    30.10R
#IRRIGON 4NW    N/A         38  35  89  E5      N/A
#UMATILLA SCHOOLN/A         30  30  100 CALM    30.24R
#UMATILLA       N/A         35  29  78  CALM    30.07R
$$

ORZ507-261410-
NORTHERN FOOTHILLS OF THE BLUES

CITY            SKY/WX      TMP DP  RH  WIND    PRES   REMARKS
PENDLETON AIRPT CLEAR       32  28  85  E8      30.12R
#ADAMS 3WNW     N/A         25  23  92  CALM    30.15R
#ATHENA         N/A         31  28  88  CALM    30.17R
#CAYUSE         N/A         37  30  75  E6      30.15R
#HELIX SCHOOL   N/A         25  21  84  CALM    30.16R
#HELIX 3N       N/A         34  28  78  S8      30.08R
#HOLDMAN 6E     N/A         33  28  82  CALM    29.96R
#M-F FERNDALE   N/A         38  29  70  CALM    30.12R
#M-F GROVE ELEM N/A         37  27  67  CALM    30.11R
#M-FREEWATER 5SEN/A         36  29  75  CALM    30.13R
#PENDLETON DNTN N/A         32  22  66  E3      30.14S
#PDT AQUATIC CTRN/A         34  21  58  CALM    30.12S
#PENDLETON 5NE  N/A         27  24  88  CALM    30.10R
#PDT SUNRIDGE   N/A         32  28  85  CALM    30.15R
#PENDLETON 7NW  N/A         29  24  81  CALM    30.14R
#PILOT ROCK     N/A         34  27  75  S2      30.14R
#TUTUILLA       N/A         33  29  85  S5      30.15R
#UMAPINE 2E     N/A         36  31  82  S1      30.11R
#WESTON SCHOOL  N/A         36  26  67  SW1     30.10R

$$

ORZ508-261410-
SOUTHERN FOOTHILLS OF THE BLUES

CITY            SKY/WX      TMP DP  RH  WIND    PRES   REMARKS
LEXINGTON       CLEAR       36  30  79  E10     30.15R
#AJAX           N/A         38  24  57  CALM    30.03S
#CONDON SCHOOL  N/A         31  25  78  CALM    30.06R
#CONDON 5W      N/A         35  28  75  SW10    30.04S
#FOSSIL SCHOOL  N/A         26  22  85  CALM    30.09R
#HEPPNER EOC    N/A         33  27  78  E7      30.08R
#HEPPNER 4NE    N/A         34  27  75  S1      30.14R
#LEXINGTON 2SE  N/A         33  27  78  SE6     30.08R
#MIKKALO        N/A         38  28  67  W2      30.10R
#RUGGS 5NE      N/A         30  25  81  E2      30.23R
#RUGGS 2SW      N/A         34  27  75  SW9     30.16R

$$

ORZ502-503-261410-
BLUE MOUNTAINS

CITY            SKY/WX      TMP DP  RH  WIND    PRES   REMARKS
MEACHAM         CLEAR       23  19  84  CALM    30.09R
#BATTLE MTN DOT N/A         25  25  100 CALM    N/A
#HEPPNER 15SE   N/A         26  24  92  CALM    29.99R
#LADD CYN SMT   N/A         27  22  81  N1      N/A
#LADD CREEK ODOTN/A         29  25  85  CALM    N/A
#LONG CREEK HS  N/A         25  25  100 CALM    30.06R
#PIKES PEAK     N/A         35  25  66  S16     27.99S WCI 25
#TOLLGATE       N/A         26  23  88  CALM    29.97R
#TROY SCHOOL    N/A         31  28  88  CALM    30.02R
#UKIAH          N/A         19  17  92  CALM    30.24R
#WESTON 4E      N/A         33  27  78  SE1     30.09R
$$

ORZ505-261410-
JOHN DAY BASIN

CITY            SKY/WX      TMP DP  RH  WIND    PRES   REMARKS
JOHN DAY        CLEAR       29  27  92  E6      30.12R
#JOHN DAY KJDY  N/A         29  24  81  SE1     30.18R
#DAYVILLE SCHOOLN/A         30  26  85  CALM    30.09R
#MITCHELL       N/A         29  25  85  CALM    30.24R
#MONUMENT HS    N/A         27  24  88  CALM    30.14R
#MT. VERNON 5SE N/A         28  25  88  CALM    30.05R
#WINLOCK        N/A         29  24  81  CALM    30.18R
$$

ORZ506-261410-
OCHOCO AND JOHN DAY HIGHLANDS

CITY            SKY/WX      TMP DP  RH  WIND    PRES   REMARKS
#BUCK CREEK DOT N/A         31  31  100 CALM    N/A
#HORSE RIDGE DO N/A         16  13  88  CALM    N/A
#KEYES SMT DOT  N/A         29  22  75  NW3     N/A
#PAULINA SCHOOL N/A         39  33  79  CALM    30.06R
#PINE MTN OBS   N/A         27  24  88  CALM    N/A
#PRAIRIE CITY   N/A         19  17  92  CALM    30.38R
#SENECA         N/A         19  N/A N/A CALM    N/A
#SENECA 9NW     N/A         19  17  92  CALM    30.16R
$$

ORZ049-261410-
GRANDE RONDE VALLEY

CITY            SKY/WX      TMP DP  RH  WIND    PRES   REMARKS
LA GRANDE       CLEAR       28  19  68  CALM    30.10R
#COVE SCHOOL    N/A         30  26  85  CALM    30.06R
#ELGIN 3N       N/A         23  18  81  CALM    30.09R
#ELGIN 1E       N/A         26  22  85  CALM    N/A
#IMBLER SCHOOL  N/A         38  30  73  CALM    30.08R
#ISLAND CITY 4N N/A         38  36  92  CALM    30.15R
#LADD CYN DOT   N/A         31  26  81  SE8     N/A
#LA GRANDE ELEM N/A         39  27  62  W6      30.12R
#UNION 1S       N/A         26  23  88  CALM    30.08R
$$

ORZ050-261410-
WALLOWA COUNTY

CITY            SKY/WX      TMP DP  RH  WIND    PRES   REMARKS
JOSEPH AIRPORT  CLEAR       25  23  92  S5      30.08R
#ENTERPRISE HS  N/A         23  20  88  CALM    30.09R
#IMNAHA SCHOOL  N/A         35  33  92  SW1     30.12R
#IMNAHA 10S     N/A         30  28  92  SW3     30.09R
#JOSEPH 3N      N/A         19  16  88  CALM    30.09R
#JOSEPH 3W      N/A         29  23  78  CALM    29.90R
#LOSTINE        N/A         21  18  88  CALM    29.96R
#MT HOWARD 8000 N/A         17  15  92  W2      29.93R
#PROMISE 1S     N/A         27  24  88  NE1     30.24R
#SHEEP RDG 7000 N/A         22  17  81  CALM    30.18R
#WALLOWA SCHOOL N/A         22  20  92  CALM    31.14R



$$



USA.gov is the U.S. government's official web portal to all federal, state and local government web resources and services.